Weather History for KCFV - December, 2013

Change the Weather History Date:

Thursday, December 12, 2013

  Actual Average Record
Temperature  
Mean Temperature 28 °F -  
Max Temperature 46 °F 46 °F 62 °F (2004)
Min Temperature 9 °F 26 °F 3 °F (2000)
Degree Days  
Heating Degree Days 38    
Moisture  
Dew Point 18 °F    
Average Humidity 70    
Maximum Humidity 88    
Minimum Humidity 40    
Precipitation  
Precipitation 0.00 in - - ()
Sea Level Pressure  
Sea Level Pressure 30.48 in    
Wind  
Wind Speed 5 mph (South)    
Max Wind Speed 13 mph    
Max Gust Speed 18 mph    
Visibility 10 miles    
Events      
Averages and records for this station are not official NWS values.
T = Trace of Precipitation, MM = Missing Value Source: NWS Daily Summary

Daily Weather History Graph

Daily Weather History Graph

Search for Another Location

Airport or City:

Trip Planner

Search our weather history database for the weather conditions in past years. The results will help you decide how hot, cold, wet, or windy it might be!

Date:

Astronomy

Dec. 12, 2013 Rise Set
Actual Time 7:26 AM CST 5:05 PM CST
Civil Twilight 6:57 AM CST 5:34 PM CST
Nautical Twilight 6:25 AM CST 6:07 PM CST
Astronomical Twilight 5:53 AM CST 6:38 PM CST
Moon 2:09 PM CST (12/12) 2:55 AM CST (12/12)
Length of Visible Light 10h 37m
Length of Day
9h 39m
Waxing Gibbous, 80% of the Moon is Illuminated
Dec 12
Waxing Gibbous
Dec 17
Full
Dec 25
Last Quarter
Jan 1
New
Jan 7
First Quarter

Hourly Weather History & Observations

Time (CST) Temp. Windchill Dew Point Humidity Pressure Visibility Wind Dir Wind Speed Gust Speed Precip Events Conditions
12:52 AM 14.0 °F - 10.0 °F 84% 30.65 in 10.0 mi Calm Calm - N/A   Clear
1:52 AM 12.9 °F - 8.1 °F 81% 30.64 in 10.0 mi Calm Calm - N/A   Clear
2:52 AM 12.0 °F - 8.1 °F 84% 30.63 in 10.0 mi Calm Calm - N/A   Clear
3:52 AM 10.9 °F - 8.1 °F 88% 30.63 in 10.0 mi Calm Calm - N/A   Clear
4:52 AM 10.0 °F - 7.0 °F 87% 30.61 in 10.0 mi Calm Calm - N/A   Clear
5:52 AM 9.0 °F 0.6 °F 6.1 °F 88% 30.59 in 10.0 mi SSE 4.6 mph - N/A   Clear
6:52 AM 10.0 °F 3.6 °F 7.0 °F 87% 30.59 in 10.0 mi South 3.5 mph - N/A   Clear
7:52 AM 12.9 °F 5.2 °F 9.0 °F 84% 30.59 in 10.0 mi South 4.6 mph - N/A   Clear
8:52 AM 19.9 °F 12.1 °F 15.1 °F 81% 30.58 in 10.0 mi South 5.8 mph - N/A   Clear
9:52 AM 28.0 °F 17.5 °F 19.0 °F 69% 30.59 in 10.0 mi South 12.7 mph - N/A   Clear
10:52 AM 34.0 °F 25.5 °F 18.0 °F 52% 30.58 in 10.0 mi South 11.5 mph - N/A   Clear
11:52 AM 39.9 °F 32.5 °F 19.0 °F 43% 30.53 in 10.0 mi SW 12.7 mph 18.4 mph N/A   Clear
12:52 PM 42.1 °F 35.7 °F 21.0 °F 43% 30.48 in 10.0 mi South 11.5 mph - N/A   Clear
1:52 PM 45.0 °F 39.3 °F 23.0 °F 42% 30.45 in 10.0 mi SSW 11.5 mph - N/A   Clear
2:52 PM 46.0 °F 40.2 °F 23.0 °F 40% 30.41 in 10.0 mi South 12.7 mph - N/A   Clear
3:52 PM 44.1 °F 37.7 °F 24.1 °F 45% 30.38 in 10.0 mi South 12.7 mph - N/A   Clear
4:52 PM 39.0 °F 31.8 °F 25.0 °F 57% 30.38 in 10.0 mi South 11.5 mph - N/A   Clear
5:52 PM 36.0 °F 28.5 °F 25.0 °F 64% 30.37 in 10.0 mi South 10.4 mph - N/A   Clear
6:52 PM 33.1 °F 25.5 °F 25.0 °F 72% 30.36 in 10.0 mi South 9.2 mph - N/A   Clear
7:52 PM 30.9 °F 25.2 °F 24.1 °F 76% 30.35 in 10.0 mi South 5.8 mph - N/A   Clear
8:52 PM 30.0 °F 23.2 °F 24.1 °F 79% 30.33 in 10.0 mi South 6.9 mph - N/A   Clear
9:52 PM 30.9 °F 22.8 °F 25.0 °F 79% 30.30 in 10.0 mi South 9.2 mph - N/A   Clear
10:52 PM 30.9 °F 22.8 °F 25.0 °F 79% 30.28 in 10.0 mi South 9.2 mph - N/A   Clear
11:52 PM 32.0 °F 24.2 °F 26.1 °F 79% 30.25 in 9.0 mi South 9.2 mph - N/A   Clear